Location: Lecco
(45.8566°N, 9.3977°E)
Time: 03:24:58
(UTC+01:00)

Envisat - Pass Details

Date: 29 October 2019
Orbit: 764 x 766 km, 98.1° (Epoch: 22 November)

Event Time Altitude Azimuth Distance (km) Brightness Sun altitude
Rises 17:55:16 0° 153° (SSE) 3,220 6.1 -7.8°
Reaches altitude 10° 17:57:35 10° 149° (SSE) 2,298 5.3 -8.2°
Maximum altitude 18:02:32 58° 72° (ENE) 897 3.1 -9.0°
Drops below altitude 10° 18:07:32 10° 354° (N) 2,313 5.5 -9.9°
Sets 18:09:52 0° 351° (N) 3,244 6.3 -10.3°
